Le nostre stazioni meteo in Italia

Pubblicità
Il mio iltempo24.it
Decimomannu, Italia (16546): Temperatura & dewpoint: 10.12.2017 17:00:00 - 16.12.2017 17:00:00 (CET)Decimomannu, Italia (16546): velocità del vento: 10.12.2017 17:00:00 - 16.12.2017 17:00:00 (CET)Decimomannu, Italia (16546): direzione del vento: 10.12.2017 17:00:00 - 16.12.2017 17:00:00 (CET)Decimomannu, Italia (16546): reduced air pressure: 10.12.2017 17:00:00 - 16.12.2017 17:00:00 (CET)Decimomannu, Italia (16546): visibility: 10.12.2017 17:00:00 - 16.12.2017 17:00:00 (CET)
Data & Tempo tt [°C] td [°C] ff [km/h] ff [kn] dd ppp [hPa] vv [km]
16.12.2017 17:00:00 10,0 6,0 13 7 ONO - 10
16.12.2017 16:00:00 11,2 5,5 29 16 ONO 1011,1 20
16.12.2017 15:00:00 13,0 7,0 26 14 NO - 10
16.12.2017 14:00:00 13,0 8,0 22 12 NO - 10
16.12.2017 13:00:00 12,8 7,9 22 12 NO 1010,3 20
16.12.2017 12:00:00 13,0 10,0 8 4 ONO - 10
16.12.2017 11:00:00 11,0 9,0 8 4 O - 10
16.12.2017 10:00:00 10,0 8,4 11 6 ONO 1010,7 18
16.12.2017 09:00:00 9,0 7,0 5 3 O - 10
16.12.2017 08:00:00 8,0 6,0 5 3 NO - 10
16.12.2017 07:00:00 7,6 6,1 5 3 NNE 1008,1 12
16.12.2017 06:00:00 8,0 6,0 5 3 N - 10
16.12.2017 05:00:00 8,0 7,0 2 1 OSO - 10
16.12.2017 04:00:00 8,2 6,3 5 3 NE 1007,6 10
16.12.2017 03:00:00 9,0 7,0 11 6 N - 10
16.12.2017 02:00:00 8,0 6,0 4 2 SE - 10
16.12.2017 01:00:00 9,4 7,7 5 3 SO 1008,3 9
16.12.2017 00:00:00 9,0 8,0 8 4 O - 8
15.12.2017 23:00:00 9,0 8,0 2 1 NNE - 8
15.12.2017 22:00:00 10,0 8,4 8 4 NNO 1006,8 8
15.12.2017 21:00:00 12,0 10,0 13 7 NO - 8
15.12.2017 20:00:00 12,0 10,0 13 7 N - 6
15.12.2017 19:00:00 12,4 10,8 24 13 NO 1005,4 7
15.12.2017 18:00:00 13,0 11,0 34 18 NO - 8
15.12.2017 17:00:00 15,0 13,0 31 17 OSO - 8
15.12.2017 16:00:00 16,0 14,2 28 15 OSO 1003,0 10
15.12.2017 15:00:00 16,0 14,0 26 14 OSO - 6
15.12.2017 14:00:00 16,0 14,0 24 13 SO - 9
15.12.2017 13:00:00 16,4 14,4 22 12 SO 1005,6 9
15.12.2017 12:00:00 15,0 14,0 13 7 S - 8
15.12.2017 11:00:00 15,0 13,0 11 6 S - 6
15.12.2017 10:00:00 14,6 13,0 21 11 SSO 1008,7 3,0
15.12.2017 09:00:00 15,0 13,0 18 10 SSO - 7
15.12.2017 08:00:00 14,0 12,0 15 8 SO - 8
15.12.2017 07:00:00 14,0 12,4 15 8 SO 1010,0 7
15.12.2017 06:00:00 15,0 13,0 21 11 SSO - 7
15.12.2017 05:00:00 15,0 13,0 13 7 OSO - 7
15.12.2017 04:00:00 15,0 13,4 11 6 SO 1011,3 8
15.12.2017 03:00:00 15,0 13,0 8 4 SO - 8
15.12.2017 02:00:00 15,0 13,0 9 5 O - 8
15.12.2017 01:00:00 14,8 13,2 16 9 OSO 1012,7 8
15.12.2017 00:00:00 15,0 13,0 16 9 OSO - 8
14.12.2017 23:00:00 14,0 13,0 8 4 OSO - 8
14.12.2017 22:00:00 15,0 13,4 11 6 O 1014,8 8
14.12.2017 21:00:00 14,0 13,0 8 4 SE - 8
14.12.2017 20:00:00 15,0 14,0 15 8 O - 8
14.12.2017 19:00:00 14,0 13,1 4 2 S 1015,6 10
14.12.2017 18:00:00 14,0 13,0 4 2 S - 10
14.12.2017 17:00:00 15,0 13,0 9 5 OSO - 10
14.12.2017 16:00:00 15,4 12,7 13 7 OSO 1016,4 10
14.12.2017 15:00:00 15,0 13,0 18 10 OSO - 10
14.12.2017 14:00:00 15,0 13,0 16 9 OSO - 10
14.12.2017 13:00:00 14,2 12,6 21 11 OSO 1018,6 10
14.12.2017 12:00:00 15,0 13,0 22 12 OSO - 10
14.12.2017 11:00:00 15,0 12,0 9 5 ONO - 10
14.12.2017 10:00:00 12,4 10,3 9 5 ONO 1019,9 20
14.12.2017 09:00:00 10,0 8,0 8 4 N - 10
14.12.2017 08:00:00 6,0 5,0 5 3 NNE - 10
14.12.2017 07:00:00 5,0 3,5 4 2 E 1020,2 12
14.12.2017 06:00:00 6,0 5,0 4 2 ENE - 10
14.12.2017 05:00:00 4,0 3,0 5 3 ENE - 10
14.12.2017 04:00:00 4,2 3,0 8 4 E 1021,0 12
14.12.2017 03:00:00 6,0 5,0 8 4 N - 10
14.12.2017 02:00:00 6,0 5,0 5 3 NNO - 10
14.12.2017 01:00:00 4,4 3,2 4 2 ENE 1022,4 10
14.12.2017 00:00:00 4,0 3,0 4 2 E - 10
13.12.2017 23:00:00 5,0 3,0 9 5 NO - 10
13.12.2017 22:00:00 4,2 3,3 2 1 NNO 1023,8 12
13.12.2017 21:00:00 5,0 4,0 5 3 N - 10
13.12.2017 20:00:00 7,0 6,0 4 2 O - 10
13.12.2017 19:00:00 7,6 5,9 4 2 SSE 1023,2 12
13.12.2017 18:00:00 9,0 6,0 11 6 ONO - 10
13.12.2017 17:00:00 11,0 6,0 18 10 NO - 10
13.12.2017 16:00:00 12,2 5,6 26 14 ONO 1022,7 20
13.12.2017 15:00:00 13,0 6,0 28 15 NNO - 10
13.12.2017 14:00:00 14,0 8,0 29 16 NNO - 10
13.12.2017 13:00:00 14,6 9,4 26 14 NO 1022,8 20
13.12.2017 12:00:00 14,0 10,0 26 14 ONO - 10
13.12.2017 11:00:00 13,0 10,0 22 12 NO - 10
13.12.2017 10:00:00 13,0 11,2 22 12 NO 1022,7 10
13.12.2017 09:00:00 11,0 9,0 4 2 NE - 10
13.12.2017 08:00:00 10,0 8,0 4 2 NE - 10
13.12.2017 07:00:00 10,6 8,9 4 2 NE 1019,9 10
13.12.2017 06:00:00 11,0 9,0 5 3 SSO - 10
13.12.2017 05:00:00 12,0 10,0 5 3 ONO - 10
13.12.2017 04:00:00 11,8 10,4 4 2 O 1019,0 10
13.12.2017 03:00:00 12,0 10,0 5 3 OSO - 10
13.12.2017 02:00:00 12,0 10,0 5 3 OSO - 10
13.12.2017 01:00:00 12,8 11,2 8 4 O 1018,5 10
13.12.2017 00:00:00 12,0 11,0 2 1 ONO - 10
12.12.2017 23:00:00 13,0 11,0 5 3 N - 10
12.12.2017 22:00:00 12,8 11,2 4 2 ENE 1017,9 10
12.12.2017 21:00:00 13,0 12,0 5 3 N - 8
12.12.2017 20:00:00 13,0 12,0 9 5 N - 8
12.12.2017 19:00:00 13,2 11,8 4 2 SSO 1015,2 8
12.12.2017 18:00:00 14,0 12,0 5 3 NNO - 8
12.12.2017 17:00:00 14,0 13,0 8 4 NNE - 8
12.12.2017 16:00:00 14,6 13,3 11 6 NNO 1013,1 12
12.12.2017 15:00:00 15,0 14,0 21 11 NNO - 10
12.12.2017 14:00:00 18,0 15,0 8 4 SE - 10
12.12.2017 13:00:00 19,4 14,2 8 4 S 1012,8 12
12.12.2017 12:00:00 19,0 14,0 9 5 SO - 10
12.12.2017 11:00:00 18,0 15,0 8 4 OSO - 10
12.12.2017 10:00:00 15,2 13,6 2 1 ESE 1012,8 8
12.12.2017 09:00:00 12,0 11,0 4 2 ESE - 8
12.12.2017 08:00:00 10,0 9,0 4 2 ENE - 8
12.12.2017 07:00:00 12,0 10,7 4 2 NNO 1009,6 10
12.12.2017 06:00:00 13,0 12,0 8 4 NNE - 10
12.12.2017 05:00:00 13,0 12,0 2 1 SO - 10
12.12.2017 04:00:00 15,0 13,4 13 7 OSO 1008,3 10
12.12.2017 03:00:00 14,0 12,0 5 3 SSO - 10
12.12.2017 02:00:00 14,0 13,0 4 2 OSO - 10
12.12.2017 01:00:00 15,2 13,2 9 5 SO 1006,7 10
12.12.2017 00:00:00 15,0 14,0 15 8 ESE - 10
11.12.2017 23:00:00 15,0 14,0 16 9 ESE - 10
11.12.2017 22:00:00 15,4 13,8 16 9 ESE 1005,3 12
11.12.2017 21:00:00 15,0 14,0 15 8 ESE - 10
11.12.2017 20:00:00 16,0 15,0 18 10 ESE - 10
11.12.2017 19:00:00 15,6 14,5 26 14 SE 1004,3 15
11.12.2017 18:00:00 15,0 14,0 16 9 SE - 10
11.12.2017 17:00:00 15,0 14,0 18 10 SE - 10
11.12.2017 16:00:00 16,4 14,9 15 8 SE 1004,0 18
11.12.2017 15:00:00 18,0 16,0 15 8 ESE - 10
11.12.2017 14:00:00 19,0 14,0 9 5 SE - 10
11.12.2017 13:00:00 18,0 14,1 21 11 SSE 1004,0 20
11.12.2017 12:00:00 18,0 15,0 18 10 SSE - 10
11.12.2017 11:00:00 17,0 14,0 21 11 SE - 10
11.12.2017 10:00:00 17,2 15,2 15 8 SSE 1006,2 18
11.12.2017 09:00:00 16,0 14,0 15 8 SSE - 10
11.12.2017 08:00:00 15,0 14,0 11 6 SSE - 10
11.12.2017 07:00:00 14,8 13,2 15 8 SE 1006,2 12
11.12.2017 06:00:00 14,0 13,0 15 8 SE - 8
11.12.2017 05:00:00 15,0 14,0 21 11 SSE - 10
11.12.2017 04:00:00 15,4 13,9 22 12 SSE 1008,0 10
11.12.2017 03:00:00 15,0 13,0 28 15 SSE - 10
11.12.2017 02:00:00 15,0 13,0 26 14 SSE - 10
11.12.2017 01:00:00 14,8 13,2 5 3 SE 1010,5 10
11.12.2017 00:00:00 15,0 13,0 9 5 SSE - 10
10.12.2017 23:00:00 15,0 13,0 9 5 SSE - 10
10.12.2017 22:00:00 13,6 12,3 8 4 ESE 1011,9 10
10.12.2017 21:00:00 14,0 12,0 9 5 SE - 10
10.12.2017 20:00:00 13,0 12,0 11 6 SSE - 10
10.12.2017 19:00:00 12,4 11,3 8 4 SSE 1013,0 8
10.12.2017 18:00:00 12,0 11,0 15 8 SE - 8
10.12.2017 17:00:00 12,0 11,0 9 5 SE - 8

tt = Temperatura
td = dewpoint
ff = velocità del vento
dd = direzione del vento
ppp = reduced air pressure
vv = visibility

Stazioni seguenti

WeatherPro
AMSI
MeteoEarth